Location: Alando
(42.3054°N, 9.2895°E)
Time: 02:50:18
(UTC+00:00)

NOSS 3-4 (A) - Pass Details

Date: 09 April 2020
Orbit: 895 x 1317 km, 63.4° (Epoch: 30 May)

Event Time Altitude Azimuth Distance (km) Brightness Sun altitude
Rises 19:26:43 0° 321° (NW) 3,869 7.9 -16.2°
Reaches altitude 10° 19:29:17 10° 319° (NW) 2,968 7.1 -16.7°
Maximum altitude 19:36:19 66° 240° (WSW) 1,288 4.2 -17.8°
Enters shadow 19:42:35 17° 162° (SSE) 2,745 5.4 -18.8°
